| time (UTC) | temp F | wind direction | speed MPH | gust MPH | rain 1hr in | rain 24hr in | rain mn in | humidity % | barometer mb |
| 20260831220526 | 80 | 239 | 3.0 | 10.0 | 0.00 | 0.00 | 0.00 | 25 | 1015.7 |
| 20260831220045 | 79 | 136 | 4.0 | 8.0 | 0.00 | 0.00 | 0.00 | 25 | 1015.6 |
| 20260831215526 | 79 | 121 | 3.0 | 7.0 | 0.00 | 0.00 | 0.00 | 25 | 1015.7 |
| 20260831215026 | 80 | 344 | 3.0 | 7.0 | 0.00 | 0.00 | 0.00 | 28 | 1015.8 |
| 20260831214541 | 80 | 251 | 1.0 | 5.0 | 0.00 | 0.00 | 0.00 | 25 | 1015.8 |
| 20260831214025 | 79 | 165 | 1.0 | 6.0 | 0.00 | 0.00 | 0.00 | 25 | 1015.9 |
| 20260831213529 | 79 | 213 | 2.0 | 7.0 | 0.00 | 0.00 | 0.00 | 25 | 1016.0 |
| 20260831213056 | 79 | 23 | 1.0 | 7.0 | 0.00 | 0.00 | 0.00 | 25 | 1016.0 |
| 20260831212524 | 79 | 259 | 2.0 | 7.0 | 0.00 | 0.00 | 0.00 | 26 | 1016.1 |
| 20260831212028 | 78 | 114 | 2.0 | 6.0 | 0.00 | 0.00 | 0.00 | 25 | 1016.1 |
| 20260831211544 | 78 | 26 | 3.0 | 6.0 | 0.00 | 0.00 | 0.00 | 25 | 1016.1 |
| 20260831211025 | 79 | 346 | 2.0 | 6.0 | 0.00 | 0.00 | 0.00 | 26 | 1016.0 |
| 20260831210526 | 79 | 192 | 1.0 | 6.0 | 0.00 | 0.00 | 0.00 | 25 | 1016.3 |
| 20260831210043 | 78 | 151 | 3.0 | 6.0 | 0.00 | 0.00 | 0.00 | 26 | 1016.4 |
| 20260831205524 | 78 | 219 | 1.0 | 6.0 | 0.00 | 0.00 | 0.00 | 26 | 1016.5 |
| 20260831205026 | 78 | 236 | 3.0 | 7.0 | 0.00 | 0.00 | 0.00 | 26 | 1016.7 |
| 20260831204550 | 77 | 0 | 4.0 | 8.0 | 0.00 | 0.00 | 0.00 | 26 | 1016.7 |
| 20260831204029 | 77 | 228 | 4.0 | 8.0 | 0.00 | 0.00 | 0.00 | 26 | 1016.8 |
| 20260831203528 | 77 | 281 | 4.0 | 9.0 | 0.00 | 0.00 | 0.00 | 27 | 1016.8 |
| 20260831203045 | 78 | 237 | 4.0 | 9.0 | 0.00 | 0.00 | 0.00 | 26 | 1016.7 |
| 20260831202527 | 78 | 261 | 3.0 | 9.0 | 0.00 | 0.00 | 0.00 | 27 | 1016.9 |
| 20260831202025 | 78 | 101 | 1.0 | 10.0 | 0.00 | 0.00 | 0.00 | 27 | 1016.9 |
| 20260831201550 | 78 | 139 | 4.0 | 10.0 | 0.00 | 0.00 | 0.00 | 27 | 1017.0 |
| 20260831201027 | 77 | 323 | 1.0 | 4.0 | 0.00 | 0.00 | 0.00 | 28 | 1017.0 |
| 20260831200526 | 76 | 347 | 1.0 | 4.0 | 0.00 | 0.00 | 0.00 | 28 | 1017.0 |
| 20260831200048 | 76 | 20 | 1.0 | 6.0 | 0.00 | 0.00 | 0.00 | 29 | 1017.0 |
| 20260831195525 | 76 | 104 | 2.0 | 9.0 | 0.00 | 0.00 | 0.00 | 28 | 1017.0 |
| 20260831195026 | 76 | 133 | 2.0 | 9.0 | 0.00 | 0.00 | 0.00 | 29 | 1017.2 |
| 20260831194627 | 75 | 71 | 4.0 | 9.0 | 0.00 | 0.00 | 0.00 | 29 | 1017.2 |
| 20260831194024 | 75 | 0 | 1.0 | 10.0 | 0.00 | 0.00 | 0.00 | 31 | 1017.2 |
| 20260831193528 | 74 | 74 | 3.0 | 10.0 | 0.00 | 0.00 | 0.00 | 30 | 1017.2 |
| 20260831193050 | 75 | 360 | 3.0 | 8.0 | 0.00 | 0.00 | 0.00 | 29 | 1017.2 |
| 20260831192526 | 75 | 103 | 3.0 | 8.0 | 0.00 | 0.00 | 0.00 | 30 | 1017.2 |
| 20260831192026 | 74 | 360 | 2.0 | 5.0 | 0.00 | 0.00 | 0.00 | 32 | 1017.1 |
| 20260831191548 | 74 | 317 | 2.0 | 8.0 | 0.00 | 0.00 | 0.00 | 31 | 1017.2 |
| 20260831191025 | 74 | 360 | 2.0 | 8.0 | 0.00 | 0.00 | 0.00 | 31 | 1017.3 |
| 20260831190527 | 74 | 360 | 5.0 | 9.0 | 0.00 | 0.00 | 0.00 | 31 | 1017.5 |
| 20260831190108 | 74 | 360 | 2.0 | 9.0 | 0.00 | 0.00 | 0.00 | 30 | 1017.6 |
| 20260831185527 | 73 | 360 | 1.0 | 14.0 | 0.00 | 0.00 | 0.00 | 33 | 1017.5 |
| 20260831185026 | 72 | 360 | 4.0 | 14.0 | 0.00 | 0.00 | 0.00 | 32 | 1017.6 |
| 20260831184542 | 72 | 360 | 3.0 | 9.0 | 0.00 | 0.00 | 0.00 | 33 | 1017.6 |
| 20260831184024 | 71 | 360 | 4.0 | 9.0 | 0.00 | 0.00 | 0.00 | 33 | 1017.6 |
| 20260831183529 | 71 | 360 | 3.0 | 8.0 | 0.00 | 0.00 | 0.00 | 32 | 1017.5 |
| 20260831183055 | 72 | 360 | 3.0 | 8.0 | 0.00 | 0.00 | 0.00 | 33 | 1017.6 |
| 20260831182528 | 72 | 360 | 1.0 | 5.0 | 0.00 | 0.00 | 0.00 | 33 | 1017.6 |
| 20260831182027 | 71 | 360 | 2.0 | 10.0 | 0.00 | 0.00 | 0.00 | 35 | 1017.8 |
| 20260831181551 | 71 | 360 | 4.0 | 10.0 | 0.00 | 0.00 | 0.00 | 33 | 1017.9 |
| 20260831181026 | 71 | 360 | 3.0 | 8.0 | 0.00 | 0.00 | 0.00 | 33 | 1018.0 |
| 20260831180528 | 71 | 360 | 3.0 | 10.0 | 0.00 | 0.00 | 0.00 | 33 | 1018.0 |
| 20260831180048 | 71 | 360 | 4.0 | 10.0 | 0.00 | 0.00 | 0.00 | 33 | 1018.1 |
| 20260831175524 | 70 | 360 | 0.0 | 11.0 | 0.00 | 0.00 | 0.00 | 33 | 1018.1 |
| 20260831175024 | 70 | 360 | 4.0 | 11.0 | 0.00 | 0.00 | 0.00 | 34 | 1018.1 |
| 20260831174550 | 70 | 360 | 2.0 | 9.0 | 0.00 | 0.00 | 0.00 | 35 | 1018.1 |
| 20260831174120 | 70 | 360 | 2.0 | 13.0 | 0.00 | 0.00 | 0.00 | 34 | 1018.1 |
| 20260831173526 | 70 | 360 | 4.0 | 13.0 | 0.00 | 0.00 | 0.00 | 35 | 1018.0 |
| 20260831173049 | 69 | 360 | 2.0 | 9.0 | 0.00 | 0.00 | 0.00 | 36 | 1018.1 |
| 20260831172525 | 68 | 360 | 4.0 | 11.0 | 0.00 | 0.00 | 0.00 | 35 | 1018.0 |
| 20260831172026 | 69 | 360 | 4.0 | 12.0 | 0.00 | 0.00 | 0.00 | 36 | 1018.1 |
| 20260831171548 | 68 | 360 | 3.0 | 12.0 | 0.00 | 0.00 | 0.00 | 37 | 1018.1 |
| 20260831171030 | 68 | 360 | 4.0 | 11.0 | 0.00 | 0.00 | 0.00 | 35 | 1018.1 |
| 20260831170525 | 68 | 360 | 3.0 | 11.0 | 0.00 | 0.00 | 0.00 | 37 | 1018.3 |
| 20260831170046 | 68 | 360 | 4.0 | 10.0 | 0.00 | 0.00 | 0.00 | 37 | 1018.2 |
| 20260831165524 | 68 | 360 | 3.0 | 11.0 | 0.00 | 0.00 | 0.00 | 36 | 1018.2 |
| 20260831165027 | 67 | 360 | 3.0 | 11.0 | 0.00 | 0.00 | 0.00 | 37 | 1018.2 |
| 20260831164559 | 67 | 360 | 5.0 | 11.0 | 0.00 | 0.00 | 0.00 | 38 | 1018.2 |
| 20260831164027 | 67 | 360 | 4.0 | 10.0 | 0.00 | 0.00 | 0.00 | 37 | 1018.1 |
| 20260831163527 | 67 | 360 | 4.0 | 9.0 | 0.00 | 0.00 | 0.00 | 39 | 1018.1 |
| 20260831163051 | 66 | 360 | 5.0 | 9.0 | 0.00 | 0.00 | 0.00 | 38 | 1018.0 |
| 20260831162531 | 66 | 360 | 3.0 | 9.0 | 0.00 | 0.00 | 0.00 | 38 | 1018.1 |
| 20260831162028 | 66 | 360 | 4.0 | 9.0 | 0.00 | 0.00 | 0.00 | 38 | 1018.0 |
| 20260831161550 | 66 | 360 | 4.0 | 8.0 | 0.00 | 0.00 | 0.00 | 38 | 1018.2 |
| 20260831161030 | 66 | 360 | 4.0 | 8.0 | 0.00 | 0.00 | 0.00 | 39 | 1018.1 |
| 20260831160525 | 65 | 360 | 4.0 | 8.0 | 0.00 | 0.00 | 0.00 | 39 | 1017.9 |
| 20260831160104 | 65 | 360 | 4.0 | 10.0 | 0.00 | 0.00 | 0.00 | 40 | 1018.0 |
| 20260831155530 | 65 | 360 | 4.0 | 10.0 | 0.00 | 0.00 | 0.00 | 39 | 1017.9 |
| 20260831155028 | 65 | 360 | 5.0 | 10.0 | 0.00 | 0.00 | 0.00 | 39 | 1018.0 |
| 20260831154651 | 64 | 360 | 2.0 | 9.0 | 0.00 | 0.00 | 0.00 | 39 | 1017.9 |
| 20260831154026 | 64 | 360 | 4.0 | 9.0 | 0.00 | 0.00 | 0.00 | 39 | 1018.1 |
| 20260831153528 | 64 | 360 | 3.0 | 10.0 | 0.00 | 0.00 | 0.00 | 39 | 1018.1 |
| 20260831153051 | 64 | 360 | 2.0 | 11.0 | 0.00 | 0.00 | 0.00 | 39 | 1018.0 |
| 20260831152526 | 64 | 360 | 6.0 | 11.0 | 0.00 | 0.00 | 0.00 | 40 | 1018.0 |
| 20260831152029 | 64 | 360 | 3.0 | 9.0 | 0.00 | 0.00 | 0.00 | 40 | 1017.9 |
| 20260831151549 | 64 | 360 | 3.0 | 9.0 | 0.00 | 0.00 | 0.00 | 41 | 1017.9 |
| 20260831151025 | 63 | 360 | 4.0 | 9.0 | 0.00 | 0.00 | 0.00 | 40 | 1017.9 |
| 20260831150525 | 63 | 360 | 4.0 | 9.0 | 0.00 | 0.00 | 0.00 | 41 | 1017.9 |
| 20260831150056 | 63 | 360 | 4.0 | 10.0 | 0.00 | 0.00 | 0.00 | 41 | 1017.7 |
| 20260831145525 | 63 | 360 | 4.0 | 11.0 | 0.00 | 0.00 | 0.00 | 42 | 1017.7 |
| 20260831145024 | 62 | 360 | 4.0 | 12.0 | 0.00 | 0.00 | 0.00 | 43 | 1017.4 |
| 20260831144542 | 62 | 360 | 6.0 | 12.0 | 0.00 | 0.00 | 0.00 | 45 | 1017.3 |
| 20260831144024 | 61 | 360 | 5.0 | 12.0 | 0.00 | 0.00 | 0.00 | 46 | 1017.3 |
| 20260831143528 | 60 | 360 | 6.0 | 11.0 | 0.00 | 0.00 | 0.00 | 47 | 1017.3 |
| 20260831143107 | 59 | 360 | 4.0 | 9.0 | 0.00 | 0.00 | 0.00 | 54 | 1017.3 |
| 20260831142529 | 58 | 360 | 3.0 | 9.0 | 0.00 | 0.00 | 0.00 | 58 | 1017.4 |
| 20260831142025 | 57 | 360 | 5.0 | 9.0 | 0.00 | 0.00 | 0.00 | 60 | 1017.4 |
| 20260831141605 | 56 | 360 | 4.0 | 8.0 | 0.00 | 0.00 | 0.00 | 63 | 1017.3 |
| 20260831141025 | 55 | 360 | 4.0 | 8.0 | 0.00 | 0.00 | 0.00 | 66 | 1017.4 |
| 20260831140527 | 53 | 360 | 3.0 | 6.0 | 0.00 | 0.00 | 0.00 | 69 | 1017.3 |
| 20260831140046 | 51 | 360 | 2.0 | 5.0 | 0.00 | 0.00 | 0.00 | 74 | 1017.3 |
| 20260831135528 | 50 | 360 | 3.0 | 4.0 | 0.00 | 0.00 | 0.00 | 81 | 1017.3 |
| 20260831135028 | 49 | 360 | 2.0 | 5.0 | 0.00 | 0.00 | 0.00 | 83 | 1017.1 |
| 20260831134601 | 47 | 360 | 2.0 | 5.0 | 0.00 | 0.00 | 0.00 | 85 | 1017.0 |
| 20260831134025 | 44 | 360 | 2.0 | 4.0 | 0.00 | 0.00 | 0.00 | 90 | 1017.1 |
| 20260831133528 | 42 | 162 | 0.0 | 0.0 | 0.00 | 0.00 | 0.00 | 89 | 1017.1 |
| 20260831133050 | 41 | 0 | 0.0 | 0.0 | 0.00 | 0.00 | 0.00 | 89 | 1017.0 |
| 20260831132526 | 41 | 0 | 0.0 | 0.0 | 0.00 | 0.00 | 0.00 | 89 | 1017.0 |
| 20260831132026 | 41 | 0 | 0.0 | 0.0 | 0.00 | 0.00 | 0.00 | 88 | 1017.0 |
| 20260831131549 | 41 | 0 | 0.0 | 0.0 | 0.00 | 0.00 | 0.00 | 87 | 1016.8 |
| 20260831131028 | 41 | 0 | 0.0 | 0.0 | 0.00 | 0.00 | 0.00 | 89 | 1016.7 |
| 20260831130528 | 40 | 0 | 0.0 | 0.0 | 0.00 | 0.00 | 0.00 | 89 | 1016.7 |
| 20260831130056 | 40 | 0 | 0.0 | 0.0 | 0.00 | 0.00 | 0.00 | 87 | 1016.6 |
| 20260831125530 | 40 | 0 | 0.0 | 0.0 | 0.00 | 0.00 | 0.00 | 88 | 1016.5 |
| 20260831125029 | 40 | 0 | 0.0 | 0.0 | 0.00 | 0.00 | 0.00 | 87 | 1016.4 |
| 20260831124559 | 40 | 0 | 0.0 | 0.0 | 0.00 | 0.00 | 0.00 | 86 | 1016.4 |
| 20260831124033 | 40 | 0 | 0.0 | 0.0 | 0.00 | 0.00 | 0.00 | 87 | 1016.3 |
| 20260831123526 | 41 | 0 | 0.0 | 0.0 | 0.00 | 0.00 | 0.00 | 89 | 1016.2 |
| 20260831123051 | 40 | 0 | 0.0 | 0.0 | 0.00 | 0.00 | 0.00 | 88 | 1016.2 |
| 20260831122530 | 40 | 0 | 0.0 | 0.0 | 0.00 | 0.00 | 0.00 | 86 | 1016.1 |
| 20260831122027 | 40 | 0 | 0.0 | 0.0 | 0.00 | 0.00 | 0.00 | 87 | 1016.0 |
| 20260831121547 | 40 | 0 | 0.0 | 0.0 | 0.00 | 0.00 | 0.00 | 85 | 1016.2 |
| 20260831121027 | 41 | 0 | 0.0 | 6.0 | 0.00 | 0.00 | 0.00 | 86 | 1016.1 |
| 20260831120527 | 41 | 0 | 0.0 | 6.0 | 0.00 | 0.00 | 0.00 | 87 | 1016.3 |
| 20260831120051 | 41 | 164 | 3.0 | 6.0 | 0.00 | 0.00 | 0.00 | 84 | 1016.2 |
| 20260831115530 | 41 | 162 | 0.0 | 3.0 | 0.00 | 0.00 | 0.00 | 84 | 1016.1 |
| 20260831115032 | 42 | 0 | 0.0 | 4.0 | 0.00 | 0.00 | 0.00 | 86 | 1016.2 |
| 20260831114549 | 41 | 162 | 1.0 | 4.0 | 0.00 | 0.00 | 0.00 | 87 | 1016.2 |
| 20260831114027 | 42 | 0 | 0.0 | 0.0 | 0.00 | 0.00 | 0.00 | 84 | 1016.0 |
| 20260831113529 | 42 | 0 | 0.0 | 0.0 | 0.00 | 0.00 | 0.00 | 83 | 1016.0 |
| 20260831113054 | 43 | 0 | 0.0 | 4.0 | 0.00 | 0.00 | 0.00 | 83 | 1015.9 |
| 20260831112526 | 43 | 0 | 0.0 | 4.0 | 0.00 | 0.00 | 0.00 | 84 | 1015.6 |
| 20260831112025 | 43 | 0 | 0.0 | 2.0 | 0.00 | 0.00 | 0.00 | 81 | 1015.4 |
| 20260831111543 | 44 | 0 | 0.0 | 0.0 | 0.00 | 0.00 | 0.00 | 82 | 1015.4 |
| 20260831111027 | 44 | 0 | 0.0 | 0.0 | 0.00 | 0.00 | 0.00 | 82 | 1015.4 |
| 20260831110529 | 45 | 0 | 0.0 | 0.0 | 0.00 | 0.00 | 0.00 | 80 | 1015.4 |
| 20260831110056 | 45 | 0 | 0.0 | 0.0 | 0.00 | 0.00 | 0.00 | 82 | 1015.3 |
| 20260831105529 | 46 | 0 | 0.0 | 3.0 | 0.00 | 0.00 | 0.00 | 79 | 1015.2 |
| 20260831105027 | 47 | 0 | 0.0 | 3.0 | 0.00 | 0.00 | 0.00 | 80 | 1015.1 |
| 20260831104553 | 48 | 0 | 0.0 | 2.0 | 0.00 | 0.00 | 0.00 | 79 | 1015.1 |
| 20260831104028 | 48 | 0 | 0.0 | 3.0 | 0.00 | 0.00 | 0.00 | 79 | 1015.0 |
| 20260831103528 | 49 | 360 | 0.0 | 3.0 | 0.00 | 0.00 | 0.00 | 78 | 1015.0 |
| 20260831103049 | 49 | 360 | 0.0 | 4.0 | 0.00 | 0.00 | 0.00 | 77 | 1014.9 |
| 20260831102529 | 50 | 360 | 1.0 | 4.0 | 0.00 | 0.00 | 0.00 | 77 | 1014.9 |
| 20260831102033 | 51 | 360 | 2.0 | 4.0 | 0.00 | 0.00 | 0.00 | 75 | 1014.9 |
| 20260831101614 | 52 | 360 | 0.0 | 1.0 | 0.00 | 0.00 | 0.00 | 74 | 1014.9 |
| 20260831101030 | 52 | 0 | 0.0 | 2.0 | 0.00 | 0.00 | 0.00 | 74 | 1014.9 |
| 20260831100528 | 53 | 0 | 0.0 | 5.0 | 0.00 | 0.00 | 0.00 | 74 | 1014.7 |
| 20260831100058 | 53 | 360 | 0.0 | 5.0 | 0.00 | 0.00 | 0.00 | 73 | 1014.7 |
| 20260831095532 | 54 | 360 | 3.0 | 5.0 | 0.00 | 0.00 | 0.00 | 73 | 1014.5 |
| 20260831095031 | 54 | 360 | 1.0 | 4.0 | 0.00 | 0.00 | 0.00 | 73 | 1014.4 |
| 20260831094548 | 55 | 0 | 1.0 | 9.0 | 0.00 | 0.00 | 0.00 | 71 | 1014.4 |
| 20260831094027 | 56 | 360 | 2.0 | 9.0 | 0.00 | 0.00 | 0.00 | 70 | 1014.3 |
| 20260831093529 | 56 | 360 | 5.0 | 10.0 | 0.00 | 0.00 | 0.00 | 71 | 1014.2 |
| 20260831093050 | 56 | 360 | 5.0 | 10.0 | 0.00 | 0.00 | 0.00 | 71 | 1014.1 |
| 20260831092526 | 56 | 360 | 6.0 | 10.0 | 0.00 | 0.00 | 0.00 | 71 | 1014.2 |
| 20260831092026 | 56 | 360 | 5.0 | 11.0 | 0.00 | 0.00 | 0.00 | 71 | 1014.1 |
| 20260831091545 | 56 | 360 | 6.0 | 12.0 | 0.00 | 0.00 | 0.00 | 71 | 1014.1 |
| 20260831091029 | 56 | 360 | 6.0 | 12.0 | 0.00 | 0.00 | 0.00 | 72 | 1014.1 |
| 20260831090525 | 56 | 360 | 8.0 | 13.0 | 0.00 | 0.00 | 0.00 | 72 | 1014.1 |
| 20260831090105 | 56 | 360 | 5.0 | 13.0 | 0.00 | 0.00 | 0.00 | 73 | 1014.1 |
| 20260831085528 | 56 | 360 | 8.0 | 12.0 | 0.00 | 0.00 | 0.00 | 73 | 1013.9 |
| 20260831085028 | 55 | 360 | 7.0 | 13.0 | 0.00 | 0.00 | 0.00 | 74 | 1013.9 |
| 20260831084553 | 55 | 360 | 7.0 | 13.0 | 0.00 | 0.00 | 0.00 | 74 | 1013.9 |
| 20260831084025 | 55 | 360 | 8.0 | 12.0 | 0.00 | 0.00 | 0.00 | 75 | 1013.9 |
| 20260831083525 | 55 | 360 | 7.0 | 12.0 | 0.00 | 0.00 | 0.00 | 75 | 1013.9 |
| 20260831083048 | 55 | 360 | 6.0 | 11.0 | 0.00 | 0.00 | 0.00 | 75 | 1013.9 |
| 20260831082526 | 55 | 360 | 5.0 | 10.0 | 0.00 | 0.00 | 0.00 | 76 | 1014.0 |
| 20260831082029 | 54 | 360 | 5.0 | 9.0 | 0.00 | 0.00 | 0.00 | 77 | 1014.0 |
| 20260831081551 | 54 | 360 | 3.0 | 6.0 | 0.00 | 0.00 | 0.00 | 79 | 1013.9 |
| 20260831081028 | 54 | 360 | 0.0 | 8.0 | 0.00 | 0.00 | 0.00 | 79 | 1013.9 |
| 20260831080525 | 53 | 360 | 2.0 | 8.0 | 0.00 | 0.00 | 0.00 | 79 | 1013.9 |
| 20260831080054 | 53 | 360 | 3.0 | 8.0 | 0.00 | 0.00 | 0.00 | 79 | 1014.0 |
| 20260831075527 | 52 | 360 | 3.0 | 5.0 | 0.00 | 0.00 | 0.00 | 79 | 1014.1 |
| 20260831075027 | 52 | 360 | 1.0 | 5.0 | 0.00 | 0.00 | 0.00 | 79 | 1014.1 |
| 20260831074552 | 52 | 360 | 1.0 | 5.0 | 0.00 | 0.00 | 0.00 | 79 | 1014.2 |
| 20260831074029 | 51 | 360 | 2.0 | 4.0 | 0.00 | 0.00 | 0.00 | 80 | 1014.3 |
| 20260831073531 | 51 | 360 | 2.0 | 4.0 | 0.00 | 0.00 | 0.00 | 80 | 1014.3 |
| 20260831073045 | 51 | 360 | 2.0 | 4.0 | 0.00 | 0.00 | 0.00 | 80 | 1014.3 |
| 20260831072526 | 51 | 0 | 0.0 | 4.0 | 0.00 | 0.00 | 0.00 | 80 | 1014.3 |
| 20260831072028 | 51 | 360 | 1.0 | 5.0 | 0.00 | 0.00 | 0.00 | 80 | 1014.3 |
| 20260831071554 | 51 | 360 | 2.0 | 5.0 | 0.00 | 0.00 | 0.00 | 81 | 1014.3 |
| 20260831071030 | 52 | 360 | 2.0 | 5.0 | 0.00 | 0.00 | 0.00 | 80 | 1014.4 |
| 20260831070529 | 52 | 360 | 2.0 | 5.0 | 0.00 | 0.00 | 0.00 | 80 | 1014.3 |
| 20260831070052 | 52 | 360 | 3.0 | 5.0 | 0.00 | 0.00 | 0.00 | 80 | 1014.4 |
| 20260831065527 | 51 | 360 | 3.0 | 4.0 | 0.00 | 0.00 | 0.00 | 80 | 1014.4 |
| 20260831065027 | 51 | 360 | 3.0 | 4.0 | 0.00 | 0.00 | 0.00 | 81 | 1014.4 |
| 20260831064547 | 51 | 360 | 0.0 | 4.0 | 0.00 | 0.00 | 0.00 | 80 | 1014.6 |
| 20260831064028 | 51 | 360 | 1.0 | 4.0 | 0.00 | 0.00 | 0.00 | 82 | 1014.5 |
| 20260831063528 | 50 | 0 | 0.0 | 0.0 | 0.00 | 0.00 | 0.00 | 80 | 1014.6 |
| 20260831063052 | 50 | 0 | 0.0 | 0.0 | 0.00 | 0.00 | 0.00 | 80 | 1014.6 |
| 20260831062525 | 50 | 0 | 0.0 | 0.0 | 0.00 | 0.00 | 0.00 | 82 | 1014.5 |
| 20260831062027 | 49 | 0 | 0.0 | 0.0 | 0.00 | 0.00 | 0.00 | 83 | 1014.5 |
| 20260831061558 | 49 | 0 | 0.0 | 0.0 | 0.00 | 0.00 | 0.00 | 80 | 1014.5 |
| 20260831061028 | 49 | 0 | 0.0 | 3.0 | 0.00 | 0.00 | 0.00 | 81 | 1014.4 |
| 20260831060527 | 49 | 0 | 0.0 | 3.0 | 0.00 | 0.00 | 0.00 | 81 | 1014.4 |
| 20260831055525 | 49 | 0 | 0.0 | 3.0 | 0.00 | 0.00 | 0.00 | 81 | 1014.3 |
| 20260831055028 | 49 | 360 | 2.0 | 3.0 | 0.00 | 0.00 | 0.00 | 84 | 1014.4 |
| 20260831054544 | 48 | 0 | 0.0 | 2.0 | 0.00 | 0.00 | 0.00 | 81 | 1014.4 |
| 20260831054026 | 49 | 0 | 0.0 | 4.0 | 0.00 | 0.00 | 0.00 | 80 | 1014.6 |
| 20260831053528 | 49 | 0 | 0.0 | 4.0 | 0.00 | 0.00 | 0.00 | 81 | 1014.7 |
| 20260831053052 | 49 | 360 | 2.0 | 4.0 | 0.00 | 0.00 | 0.00 | 83 | 1014.7 |
| 20260831052531 | 48 | 360 | 0.0 | 3.0 | 0.00 | 0.00 | 0.00 | 82 | 1014.7 |
| 20260831052028 | 48 | 0 | 0.0 | 2.0 | 0.00 | 0.00 | 0.00 | 80 | 1014.9 |
| 20260831051603 | 49 | 0 | 0.0 | 3.0 | 0.00 | 0.00 | 0.00 | 79 | 1014.9 |
| 20260831051028 | 49 | 360 | 1.0 | 4.0 | 0.00 | 0.00 | 0.00 | 81 | 1014.8 |
| 20260831050526 | 49 | 360 | 1.0 | 4.0 | 0.00 | 0.00 | 0.00 | 80 | 1014.9 |
| 20260831050051 | 49 | 360 | 2.0 | 4.0 | 0.00 | 0.00 | 0.00 | 81 | 1014.9 |
| 20260831045525 | 49 | 360 | 2.0 | 4.0 | 0.00 | 0.00 | 0.00 | 82 | 1014.8 |
| 20260831045028 | 49 | 360 | 1.0 | 3.0 | 0.00 | 0.00 | 0.00 | 81 | 1014.8 |
| 20260831044547 | 49 | 360 | 2.0 | 3.0 | 0.00 | 0.00 | 0.00 | 80 | 1015.0 |
| 20260831044032 | 49 | 0 | 0.0 | 0.0 | 0.00 | 0.00 | 0.00 | 79 | 1015.0 |
| 20260831043528 | 49 | 0 | 0.0 | 0.0 | 0.00 | 0.00 | 0.00 | 79 | 1015.0 |
| 20260831043052 | 50 | 0 | 0.0 | 0.0 | 0.00 | 0.00 | 0.00 | 79 | 1014.9 |
| 20260831042525 | 50 | 0 | 0.0 | 0.0 | 0.00 | 0.00 | 0.00 | 79 | 1015.2 |
| 20260831042026 | 50 | 0 | 0.0 | 0.0 | 0.00 | 0.00 | 0.00 | 77 | 1015.1 |
| 20260831041548 | 51 | 0 | 0.0 | 0.0 | 0.00 | 0.00 | 0.00 | 78 | 1015.2 |
| 20260831041029 | 51 | 0 | 0.0 | 0.0 | 0.00 | 0.00 | 0.00 | 78 | 1015.2 |
| 20260831040528 | 51 | 0 | 0.0 | 2.0 | 0.00 | 0.00 | 0.00 | 77 | 1015.2 |
| 20260831040047 | 51 | 0 | 0.0 | 4.0 | 0.00 | 0.00 | 0.00 | 77 | 1015.1 |
| 20260831035526 | 51 | 0 | 1.0 | 4.0 | 0.00 | 0.00 | 0.00 | 77 | 1015.0 |
| 20260831035031 | 51 | 0 | 0.0 | 2.0 | 0.00 | 0.00 | 0.00 | 77 | 1015.0 |
| 20260831034551 | 52 | 0 | 0.0 | 0.0 | 0.00 | 0.00 | 0.00 | 74 | 1015.0 |
| 20260831034025 | 52 | 0 | 0.0 | 1.0 | 0.00 | 0.00 | 0.00 | 75 | 1015.0 |
| 20260831033527 | 52 | 0 | 0.0 | 3.0 | 0.00 | 0.00 | 0.00 | 76 | 1015.0 |
| 20260831033051 | 52 | 0 | 1.0 | 3.0 | 0.00 | 0.00 | 0.00 | 75 | 1015.0 |
| 20260831032526 | 52 | 0 | 0.0 | 0.0 | 0.00 | 0.00 | 0.00 | 73 | 1015.1 |
| 20260831032026 | 53 | 0 | 0.0 | 0.0 | 0.00 | 0.00 | 0.00 | 71 | 1014.9 |
| 20260831031548 | 53 | 0 | 0.0 | 0.0 | 0.00 | 0.00 | 0.00 | 74 | 1014.9 |
| 20260831031025 | 53 | 0 | 0.0 | 0.0 | 0.00 | 0.00 | 0.00 | 71 | 1014.9 |
| 20260831030525 | 54 | 0 | 0.0 | 0.0 | 0.00 | 0.00 | 0.00 | 69 | 1014.8 |
| 20260831030110 | 55 | 0 | 0.0 | 0.0 | 0.00 | 0.00 | 0.00 | 67 | 1014.7 |
| 20260831025528 | 55 | 0 | 0.0 | 0.0 | 0.00 | 0.00 | 0.00 | 69 | 1014.6 |
| 20260831025028 | 56 | 0 | 0.0 | 0.0 | 0.00 | 0.00 | 0.00 | 66 | 1014.5 |
| 20260831024611 | 57 | 0 | 0.0 | 0.0 | 0.00 | 0.00 | 0.00 | 65 | 1014.4 |
| 20260831024025 | 58 | 0 | 0.0 | 0.0 | 0.00 | 0.00 | 0.00 | 63 | 1014.3 |
| 20260831023525 | 59 | 0 | 0.0 | 0.0 | 0.00 | 0.00 | 0.00 | 62 | 1014.3 |
| 20260831023052 | 59 | 0 | 0.0 | 0.0 | 0.00 | 0.00 | 0.00 | 62 | 1014.4 |
| 20260831022525 | 60 | 0 | 0.0 | 0.0 | 0.00 | 0.00 | 0.00 | 62 | 1014.0 |
| 20260831022026 | 60 | 0 | 0.0 | 0.0 | 0.00 | 0.00 | 0.00 | 61 | 1014.0 |
| 20260831021545 | 60 | 0 | 0.0 | 2.0 | 0.00 | 0.00 | 0.00 | 60 | 1013.9 |
| 20260831021028 | 61 | 0 | 0.0 | 4.0 | 0.00 | 0.00 | 0.00 | 59 | 1013.8 |
| 20260831020528 | 62 | 0 | 1.0 | 4.0 | 0.00 | 0.00 | 0.00 | 58 | 1013.8 |
| 20260831020051 | 62 | 360 | 1.0 | 4.0 | 0.00 | 0.00 | 0.00 | 58 | 1013.8 |
| 20260831015529 | 62 | 0 | 2.0 | 4.0 | 0.00 | 0.00 | 0.00 | 57 | 1013.7 |
| 20260831015027 | 63 | 360 | 2.0 | 4.0 | 0.00 | 0.00 | 0.00 | 56 | 1013.6 |
| 20260831014548 | 63 | 0 | 2.0 | 5.0 | 0.00 | 0.00 | 0.00 | 54 | 1013.6 |
| 20260831014026 | 64 | 88 | 2.0 | 5.0 | 0.00 | 0.00 | 0.00 | 54 | 1013.5 |
| 20260831013527 | 64 | 80 | 0.0 | 5.0 | 0.00 | 0.00 | 0.00 | 53 | 1013.5 |
| 20260831013101 | 65 | 0 | 1.0 | 5.0 | 0.00 | 0.00 | 0.00 | 52 | 1013.3 |
| 20260831012527 | 66 | 360 | 2.0 | 5.0 | 0.00 | 0.00 | 0.00 | 51 | 1013.4 |
| 20260831012027 | 66 | 360 | 1.0 | 8.0 | 0.00 | 0.00 | 0.00 | 51 | 1013.3 |
| 20260831011551 | 67 | 360 | 3.0 | 8.0 | 0.00 | 0.00 | 0.00 | 50 | 1013.4 |
| 20260831011027 | 67 | 360 | 2.0 | 8.0 | 0.00 | 0.00 | 0.00 | 49 | 1013.5 |
| 20260831010527 | 67 | 360 | 3.0 | 9.0 | 0.00 | 0.00 | 0.00 | 49 | 1013.3 |
| 20260831010051 | 68 | 360 | 4.0 | 10.0 | 0.00 | 0.00 | 0.00 | 48 | 1013.3 |
| 20260831005527 | 68 | 360 | 4.0 | 12.0 | 0.00 | 0.00 | 0.00 | 48 | 1013.2 |
| 20260831005025 | 68 | 360 | 6.0 | 13.0 | 0.00 | 0.00 | 0.00 | 48 | 1013.2 |
| 20260831004551 | 69 | 360 | 7.0 | 13.0 | 0.00 | 0.00 | 0.00 | 48 | 1013.2 |
| 20260831004029 | 68 | 360 | 6.0 | 11.0 | 0.00 | 0.00 | 0.00 | 48 | 1013.1 |
| 20260831003528 | 69 | 64 | 5.0 | 11.0 | 0.00 | 0.00 | 0.00 | 47 | 1013.0 |
| 20260831003048 | 70 | 63 | 7.0 | 11.0 | 0.00 | 0.00 | 0.00 | 46 | 1012.9 |
| 20260831002527 | 70 | 72 | 6.0 | 12.0 | 0.00 | 0.00 | 0.00 | 46 | 1012.9 |
| 20260831002026 | 71 | 38 | 7.0 | 14.0 | 0.00 | 0.00 | 0.00 | 46 | 1012.9 |
| 20260831001551 | 71 | 43 | 9.0 | 14.0 | 0.00 | 0.00 | 0.00 | 46 | 1012.8 |
| 20260831001028 | 72 | 360 | 7.0 | 12.0 | 0.00 | 0.00 | 0.00 | 45 | 1012.8 |
| 20260831000527 | 72 | 360 | 7.0 | 12.0 | 0.00 | 0.00 | 0.00 | 45 | 1012.7 |
| 20260831000045 | 73 | 360 | 5.0 | 12.0 | 0.00 | 0.00 | 0.00 | 45 | 1012.7 |
| 20260830235528 | 73 | 54 | 7.0 | 10.0 | 0.00 | 0.00 | 0.00 | 45 | 1012.5 |
| 20260830235027 | 74 | 71 | 5.0 | 10.0 | 0.00 | 0.00 | 0.00 | 45 | 1012.4 |
| 20260830234602 | 74 | 75 | 4.0 | 12.0 | 0.00 | 0.00 | 0.00 | 45 | 1012.3 |
| 20260830234028 | 74 | 54 | 4.0 | 12.0 | 0.00 | 0.00 | 0.00 | 44 | 1012.4 |
| 20260830233528 | 74 | 90 | 5.0 | 11.0 | 0.00 | 0.00 | 0.00 | 44 | 1012.4 |
| 20260830233049 | 75 | 76 | 5.0 | 12.0 | 0.00 | 0.00 | 0.00 | 44 | 1012.2 |
| 20260830232529 | 75 | 51 | 4.0 | 12.0 | 0.00 | 0.00 | 0.00 | 44 | 1012.1 |
| 20260830232027 | 75 | 132 | 5.0 | 10.0 | 0.00 | 0.00 | 0.00 | 44 | 1012.2 |
| 20260830231550 | 74 | 119 | 4.0 | 8.0 | 0.00 | 0.00 | 0.00 | 44 | 1012.1 |
| 20260830231026 | 74 | 39 | 3.0 | 8.0 | 0.00 | 0.00 | 0.00 | 45 | 1012.3 |
| 20260830230525 | 75 | 38 | 4.0 | 8.0 | 0.00 | 0.00 | 0.00 | 45 | 1012.1 |
| 20260830230044 | 74 | 0 | 1.0 | 7.0 | 0.00 | 0.00 | 0.00 | 45 | 1012.2 |
| 20260830225525 | 74 | 76 | 3.0 | 9.0 | 0.00 | 0.00 | 0.00 | 45 | 1012.3 |
| 20260830225028 | 74 | 129 | 3.0 | 9.0 | 0.00 | 0.00 | 0.00 | 44 | 1012.3 |
| 20260830224555 | 74 | 117 | 4.0 | 9.0 | 0.00 | 0.00 | 0.00 | 45 | 1012.3 |
| 20260830224030 | 73 | 54 | 4.0 | 9.0 | 0.00 | 0.00 | 0.00 | 47 | 1012.3 |
| 20260830223526 | 73 | 45 | 0.0 | 4.0 | 0.00 | 0.00 | 0.00 | 47 | 1012.1 |
| 20260830223049 | 72 | 45 | 2.0 | 4.0 | 0.00 | 0.00 | 0.00 | 48 | 1012.1 |
| 20260830222525 | 72 | 306 | 2.0 | 6.0 | 0.00 | 0.00 | 0.00 | 49 | 1012.1 |
| 20260830222027 | 72 | 54 | 2.0 | 8.0 | 0.00 | 0.00 | 0.00 | 49 | 1012.0 |
| 20260830221549 | 72 | 35 | 3.0 | 8.0 | 0.00 | 0.00 | 0.00 | 49 | 1012.1 |
| 20260830221029 | 72 | 0 | 4.0 | 8.0 | 0.00 | 0.00 | 0.00 | 48 | 1012.1 |